Location: Pella
(41.4080°N, 92.9160°W)
Time: 05:20:27
(UTC-05:00)

ASTRO E2 - Visible Passes

Search period start: 24 October 2014 00:00
Search period end: 02 November 2014 23:00
Orbit: 533 x 540 km, 31.4° (Epoch: 22 October)

Date Brightness Start Highest point End Pass type
(mag) Time Alt. Az. Time Alt. Az. Time Alt. Az.
27 Oct 5.4 05:35:35 10° S 05:36:35 11° SSE 05:37:36 10° SSE visible
28 Oct 5.3 05:25:15 13° SSE 05:25:22 13° SSE 05:27:09 10° SE visible
28 Oct 4.9 07:02:37 10° SW 07:05:37 20° S 07:08:36 10° SE visible
29 Oct 5.3 05:14:56 14° SSE 05:14:56 14° SSE 05:16:22 10° SE visible
29 Oct 4.8 06:51:24 10° SW 06:54:25 20° S 06:57:26 10° SE visible
30 Oct 5.5 05:04:33 13° SE 05:04:33 13° SE 05:05:26 10° SE visible
30 Oct 4.7 06:40:12 10° SW 06:43:12 20° S 06:46:12 10° SE visible
31 Oct 5.7 04:54:08 11° SE 04:54:08 11° SE 04:54:24 10° SE visible
31 Oct 4.7 06:29:26 12° SW 06:31:58 19° S 06:34:56 10° SE visible
01 Nov 4.7 06:18:59 15° SW 06:20:44 18° S 06:23:36 10° SE visible
02 Nov 4.7 05:08:31 16° SSW 05:09:28 17° S 05:12:11 10° SSE visible
